Location: ??????
(41.3794°N, 22.5014°E)
Time: 06:49:53
(UTC+00:00)

Meteor 1-14 Rocket - Pass Details

Date: 30 November 2020
Orbit: 834 x 919 km, 81.3° (Epoch: 17 January)

Event Time Altitude Azimuth Distance (km) Brightness Sun altitude
Rises 16:15:43 0° 353° (N) 3,550 7.3 -13.6°
Reaches altitude 10° 16:18:13 10° 357° (N) 2,611 6.6 -14.1°
Maximum altitude 16:24:09 62° 78° (ENE) 1,027 4.3 -15.1°
Drops below altitude 10° 16:30:03 10° 159° (SSE) 2,603 6.7 -16.2°
Sets 16:32:32 0° 162° (SSE) 3,538 7.4 -16.7°
